When you browse on this site, cookies collect data to enhance your experience and personalize the content and advertising you see.
Visit our Privacy Policy to learn more. By continuing to use the site, you agree to this use of cookies and data.
  • In Slovakia
  • List of Countries
  • For 7 days
  • Water Temperature
  • Satellite Maps
  • Weather Map
  • Weather Widgets
  • user-avatar
    Login

    Hourly Weather Kyrdzhali

    Today, 23 January, Wednesday

    Time Temperature Precipitation Wind Pressure Humidity
    00:00 +4°C° 0.3 mm 2 mps 720 mmHg 95%
    01:00 +5°C° 0.3 mm 2 mps 720 mmHg 96%
    02:00 +5°C° 0.3 mm 2 mps 719 mmHg 96%
    03:00 +5°C° 0.1 mm 2 mps 719 mmHg 96%
    04:00 +4°C° 0.1 mm 3 mps 718 mmHg 97%
    05:00 +5°C° 0.1 mm 3 mps 718 mmHg 97%
    06:00 +6°C° 0 mm 2 mps 718 mmHg 96%
    07:00 +5°C° 0 mm 2 mps 718 mmHg 96%
    08:00 +5°C° 0 mm 2 mps 717 mmHg 96%
    09:00 +7°C° 0 mm 2 mps 718 mmHg 92%
    10:00 +8°C° 0 mm 2 mps 718 mmHg 89%
    11:00 +9°C° 0 mm 3 mps 718 mmHg 86%
    12:00 +9°C° 0.1 mm 3 mps 718 mmHg 87%
    13:00 +8°C° 0.1 mm 4 mps 717 mmHg 87%
    14:00 +8°C° 0.1 mm 4 mps 717 mmHg 88%
    15:00 +8°C° 0.2 mm 5 mps 717 mmHg 89%
    16:00 +8°C° 0.2 mm 6 mps 716 mmHg 90%
    17:00 +8°C° 0.2 mm 7 mps 716 mmHg 91%
    18:00 +6°C° 0.2 mm 7 mps 716 mmHg 91%
    19:00 +7°C° 0.2 mm 6 mps 715 mmHg 92%
    20:00 +7°C° 0.2 mm 6 mps 715 mmHg 93%
    21:00 +7°C° 0.6 mm 6 mps 715 mmHg 93%
    22:00 +7°C° 0.6 mm 6 mps 715 mmHg 93%
    23:00 +7°C° 0.6 mm 6 mps 715 mmHg 94%

    Tomorrow, 24 January, Thursday

    Time Temperature Precipitation Wind Pressure Humidity
    00:00 +7°C° 2.3 mm 6 mps 714 mmHg 94%
    01:00 +7°C° 2.3 mm 6 mps 713 mmHg 95%
    02:00 +7°C° 2.3 mm 5 mps 713 mmHg 96%
    03:00 +7°C° 1.6 mm 5 mps 712 mmHg 96%
    04:00 +7°C° 1.6 mm 5 mps 712 mmHg 95%
    05:00 +7°C° 1.6 mm 5 mps 711 mmHg 95%
    06:00 +7°C° 1 mm 4 mps 710 mmHg 95%
    07:00 +7°C° 1 mm 4 mps 710 mmHg 96%
    08:00 +7°C° 1 mm 3 mps 710 mmHg 96%
    09:00 +7°C° 0.5 mm 4 mps 710 mmHg 95%
    10:00 +7°C° 0.5 mm 4 mps 710 mmHg 93%
    11:00 +7°C° 0.5 mm 4 mps 710 mmHg 91%
    12:00 +8°C° 0.2 mm 5 mps 710 mmHg 87%
    13:00 +8°C° 0.2 mm 5 mps 709 mmHg 83%
    14:00 +9°C° 0.2 mm 6 mps 709 mmHg 79%
    15:00 +8°C° 0 mm 6 mps 709 mmHg 79%
    16:00 +8°C° 0 mm 6 mps 710 mmHg 79%
    17:00 +7°C° 0 mm 6 mps 710 mmHg 79%
    18:00 +7°C° 0 mm 5 mps 710 mmHg 81%
    19:00 +6°C° 0 mm 5 mps 711 mmHg 84%
    20:00 +6°C° 0 mm 4 mps 711 mmHg 86%
    21:00 +5°C° 0 mm 4 mps 712 mmHg 88%
    22:00 +5°C° 0 mm 3 mps 712 mmHg 90%
    23:00 +5°C° 0 mm 3 mps 712 mmHg 92%

    Day after tomorrow, 25 January, Friday

    Time Temperature Precipitation Wind Pressure Humidity
    00:00 +5°C° 0.2 mm 3 mps 712 mmHg 93%
    01:00 +5°C° 0.2 mm 3 mps 712 mmHg 94%
    02:00 +7°C° 0.2 mm 3 mps 712 mmHg 95%
    03:00 +6°C° 1 mm 4 mps 712 mmHg 95%
    04:00 +6°C° 1 mm 4 mps 711 mmHg 95%
    05:00 +6°C° 1 mm 5 mps 711 mmHg 95%
    06:00 +6°C° 1.5 mm 5 mps 711 mmHg 95%
    07:00 +6°C° 1.5 mm 5 mps 711 mmHg 94%
    08:00 +6°C° 1.5 mm 5 mps 711 mmHg 94%
    09:00 +7°C° 0.4 mm 5 mps 711 mmHg 91%
    10:00 +7°C° 0.4 mm 6 mps 712 mmHg 87%
    11:00 +8°C° 0.4 mm 6 mps 712 mmHg 84%
    12:00 +8°C° 0.1 mm 6 mps 712 mmHg 82%
    13:00 +8°C° 0.1 mm 5 mps 712 mmHg 80%
    14:00 +8°C° 0.1 mm 5 mps 711 mmHg 79%
    15:00 +8°C° 1.4 mm 4 mps 711 mmHg 84%
    16:00 +8°C° 1.4 mm 3 mps 710 mmHg 89%
    17:00 +7°C° 1.4 mm 3 mps 710 mmHg 94%
    18:00 +7°C° 1.4 mm 3 mps 710 mmHg 94%
    19:00 +6°C° 1.4 mm 4 mps 710 mmHg 94%
    20:00 +6°C° 1.4 mm 4 mps 710 mmHg 93%
    21:00 +7°C° 1.2 mm 3 mps 710 mmHg 94%
    22:00 +7°C° 1.2 mm 2 mps 710 mmHg 95%
    23:00 +6°C° 1.2 mm 2 mps 710 mmHg 95%

    26 January, Saturday

    Time Temperature Precipitation Wind Pressure Humidity
    00:00 +7°C° 0.1 mm 1 mps 710 mmHg 96%
    01:00 +7°C° 0.1 mm 1 mps 710 mmHg 96%
    02:00 +6°C° 0.1 mm 0 mps 710 mmHg 96%
    03:00 +7°C° 0.8 mm 1 mps 710 mmHg 96%
    04:00 +6°C° 0.8 mm 2 mps 710 mmHg 97%
    05:00 +6°C° 0.8 mm 2 mps 709 mmHg 97%
    06:00 +5°C° 2.1 mm 2 mps 710 mmHg 96%
    07:00 +4°C° 2.1 mm 3 mps 710 mmHg 94%
    08:00 +4°C° 2.1 mm 3 mps 710 mmHg 93%
    09:00 +4°C° 0.9 mm 3 mps 710 mmHg 92%
    10:00 +3°C° 0.9 mm 4 mps 711 mmHg 91%
    11:00 +3°C° 0.9 mm 4 mps 711 mmHg 90%
    12:00 +3°C° 1.6 mm 4 mps 711 mmHg 91%
    13:00 +3°C° 1.6 mm 4 mps 711 mmHg 91%
    14:00 +3°C° 1.6 mm 4 mps 711 mmHg 92%
    15:00 +3°C° 0.9 mm 4 mps 711 mmHg 91%
    16:00 +2°C° 0.9 mm 5 mps 711 mmHg 90%
    17:00 +2°C° 0.9 mm 5 mps 712 mmHg 89%
    18:00 +2°C° 0.3 mm 5 mps 712 mmHg 88%
    19:00 +2°C° 0.3 mm 5 mps 712 mmHg 88%
    20:00 +2°C° 0.3 mm 5 mps 713 mmHg 88%
    21:00 +1°C° 0.8 mm 4 mps 713 mmHg 88%
    22:00 +1°C° 0.8 mm 4 mps 713 mmHg 89%
    23:00 +2°C° 0.8 mm 3 mps 714 mmHg 90%

    27 January, Sunday

    Time Temperature Precipitation Wind Pressure Humidity
    00:00 +2°C° 0.8 mm 3 mps 714 mmHg 90%
    01:00 +3°C° 0.8 mm 2 mps 714 mmHg 91%
    02:00 +4°C° 0.8 mm 1 mps 714 mmHg 92%
    03:00 +4°C° 0.3 mm 1 mps 714 mmHg 92%
    04:00 +4°C° 0.3 mm 1 mps 714 mmHg 91%
    05:00 +4°C° 0.3 mm 1 mps 714 mmHg 91%
    06:00 +4°C° 0.1 mm 1 mps 714 mmHg 91%
    07:00 +4°C° 0.1 mm 1 mps 714 mmHg 91%
    08:00 +3°C° 0.1 mm 0 mps 715 mmHg 91%
    09:00 +4°C° 0.1 mm 1 mps 715 mmHg 89%
    10:00 +5°C° 0.1 mm 1 mps 715 mmHg 88%
    11:00 +5°C° 0.1 mm 1 mps 715 mmHg 86%
    12:00 +6°C° 0.1 mm 1 mps 715 mmHg 85%
    13:00 +6°C° 0.1 mm 1 mps 715 mmHg 85%
    14:00 +6°C° 0.1 mm 1 mps 715 mmHg 84%
    15:00 +6°C° 0.1 mm 1 mps 715 mmHg 86%
    16:00 +6°C° 0.1 mm 1 mps 715 mmHg 89%
    17:00 +5°C° 0.1 mm 0 mps 715 mmHg 91%
    18:00 +4°C° 0.1 mm 0 mps 716 mmHg 92%
    19:00 +4°C° 0.1 mm 0 mps 716 mmHg 93%
    20:00 +4°C° 0.1 mm 0 mps 717 mmHg 94%
    21:00 +5°C° 0.1 mm 1 mps 717 mmHg 94%
    22:00 +5°C° 0.1 mm 1 mps 717 mmHg 94%
    23:00 +5°C° 0.1 mm 1 mps 718 mmHg 94%

    28 January, Monday

    Time Temperature Precipitation Wind Pressure Humidity
    00:00 +4°C° 0 mm 1 mps 718 mmHg 94%
    01:00 +4°C° 0 mm 1 mps 718 mmHg 94%
    02:00 +3°C° 0 mm 1 mps 718 mmHg 95%
    03:00 +3°C° 0 mm 1 mps 719 mmHg 94%
    04:00 +3°C° 0 mm 1 mps 719 mmHg 94%
    05:00 +2°C° 0 mm 1 mps 719 mmHg 94%
    06:00 +2°C° 0 mm 1 mps 719 mmHg 93%
    07:00 +2°C° 0 mm 1 mps 719 mmHg 91%
    08:00 +2°C° 0 mm 1 mps 720 mmHg 90%
    09:00 +4°C° 0 mm 1 mps 720 mmHg 84%
    10:00 +4°C° 0 mm 2 mps 721 mmHg 79%
    11:00 +6°C° 0 mm 2 mps 721 mmHg 73%
    12:00 +7°C° 0 mm 3 mps 721 mmHg 74%
    13:00 +7°C° 0 mm 3 mps 721 mmHg 75%
    14:00 +7°C° 0 mm 4 mps 722 mmHg 75%
    15:00 +8°C° 0 mm 3 mps 722 mmHg 79%
    16:00 +7°C° 0 mm 3 mps 721 mmHg 83%
    17:00 +6°C° 0 mm 2 mps 721 mmHg 86%
    18:00 +6°C° 0 mm 2 mps 722 mmHg 88%
    19:00 +5°C° 0 mm 2 mps 722 mmHg 90%
    20:00 +4°C° 0 mm 2 mps 722 mmHg 92%
    21:00 +6°C° 0 mm 1 mps 722 mmHg 91%
    22:00 +6°C° 0 mm 1 mps 723 mmHg 91%
    23:00 +6°C° 0 mm 1 mps 723 mmHg 91%
    Show more